Preview of NWS' New Version of Forecast
This preview is not operational and should not be used for support decisions.

Regional Weather Roundup (RWR)

Issued by National Weather Service (NWS)

                            
000
ASUS46 KSEW 170910
RWRWA 

WASHINGTON REGIONAL WEATHER ROUNDUP
NATIONAL WEATHER SERVICE SEATTLE WA
200 AM PDT MON JUN 17 2019

NOTE:"FAIR" INDICATES FEW OR NO CLOUDS BELOW 12,000 FEET WITH NO 
SIGNIFICANT WEATHER AND/OR OBSTRUCTIONS TO VISIBILITY.

WAZ507-509-555>559-171000-
SEATTLE, TACOMA, EVERETT, AND VICINITY
  
CITY           SKY/WX    TMP DP  RH WIND       PRES   REMARKS
EVERETT        CLEAR     55  52  89 N8        30.07R                  
BOEING FIELD   CLEAR     63  52  67 CALM      30.05R                  
RENTON         CLEAR     61  55  81 S5        30.06R                  
SEATAC AIRPORT PTCLDY    58  53  84 SW5       30.07R                  
JBLM-MCCHORD   CLEAR     57  56  99 SW6       30.07R                  
PUYALLUP       FAIR      54  54 100 CALM      30.08R                  
BREMERTON      CLEAR     53  51  93 CALM      30.07R                  
JBLM-FT LEWIS  CLEAR     55  55 100 SW3       30.07R                  
TACOMA NARROWS CLEAR     55  52  89 SW5       30.07S                  
$$
 
WAZ001-503-506-510-514-515-171000-
NORTH INTERIOR
  
CITY           SKY/WX    TMP DP  RH WIND       PRES   REMARKS
BELLINGHAM     CLEAR     57  51  80 S10G20    30.02R                  
FRIDAY HARBOR  CLEAR     53  47  79 CALM      30.04R                  
EASTSOUND      CLEAR     55  52  88 S12       30.01R                  
PORT ANGELES   CLEAR     52  51  97 W8        30.07R                  
EDIZ HOOK      FAIR      53  51  92 W17G24    30.06R                  
PORT TOWNSEND  FAIR      48  46  93 CALM      30.06R                  
NAS WHIDBEY    MOCLDY    56  50  80 SW12      30.09S                  
ARLINGTON      PTCLDY    54  51  90 N10       30.08R                  
BURLINGTON     CLOUDY    55  52  88 S7        30.07R                  
$$
 
WAZ020-022-039-040-504-511-512-171000-
SOUTHWEST INTERIOR
  
CITY           SKY/WX    TMP DP  RH WIND       PRES   REMARKS
SHELTON        CLOUDY    56  51  84 W9        30.05R                  
OLYMPIA        CLEAR     53  50  89 S5        30.07S                  
CHEHALIS       CLOUDY    55  54  94 CALM      30.09R                  
KELSO          CLOUDY    58  53  84 NW5       30.10R                  
VANCOUVER      CLEAR     59  52  77 NW6       30.07R                  
SCAPPOOSE, OR  CLEAR     55  51  86 CALM      30.07R                  
PORTLAND, OR   PTCLDY    59  51  75 NW6       30.08R                  
$$
 
WAZ021-516-517-171000-
WASHINGTON COAST
  
CITY           SKY/WX    TMP DP  RH WIND       PRES   REMARKS
FORKS          CLOUDY    52  51  97 NW3       30.11S                  
HOQUIAM        CLOUDY    53  53 100 W12       30.11R                  
ASTORIA, OR    CLOUDY    55  53  93 W5        30.12R                  
$$
 
WAZ019-023-024-040-567>569-171000-
CASCADE MOUNTAINS AND COLUMBIA GORGE
  
CITY           SKY/WX    TMP DP  RH WIND       PRES   REMARKS
STAMPEDE PASS  CLEAR     49  47  93 VRB6      30.10S                  
TROUTDALE, OR  CLEAR     59  53  80 CALM      30.07R                  
HOOD RIVER, OR MOSUNNY   63  52  67 CALM      29.98S                  
THE DALLES, OR MOCLDY    66  53  63 NW17      29.92R                  
$$

WAZ026-027-041>044-520-521-171000-
EAST SLOPES
  
CITY           SKY/WX    TMP DP  RH WIND       PRES   REMARKS
OMAK           PTCLDY    66  49  54 NW12      29.90R                  
WENATCHEE      CLEAR     69  48  47 W12G20    29.91S                  
ELLENSBURG     MOCLDY    65  48  54 NW23G37   29.94S                  
YAKIMA         PTCLDY    69  44  40 NW14      29.92R                  
SUNNYSIDE ARPT SUNNY     60  52  74 CALM      29.88R                  
YAKIMA TC      FAIR      65  45  49 E7        29.92R                  
$$

WAZ028-034-035-171000-
COLUMBIA BASIN
  
CITY           SKY/WX    TMP DP  RH WIND       PRES   REMARKS
EPHRATA        PTCLDY    72  48  42 NW20G26   29.86R                  
MOSES LAKE     PTCLDY    71  48  43 N8        29.87R                  
PASCO          MOCLDY    70  52  52 CALM      29.87R                  
RICHLAND ARPT  MOSUNNY   72  50  46 CALM      29.87                   
HERMISTON, OR  MOCLDY    70  51  51 SW15      29.89R                  
$$

WAZ036>038-171000-
NORTHEAST WASHINGTON
  
CITY           SKY/WX    TMP DP  RH WIND       PRES   REMARKS
SPOKANE GEIGER PTCLDY    67  48  50 S3        29.91R                  
SPOKANE FELTS  PTCLDY    63  52  67 CALM      29.90R                  
FAIRCHILD AFB  PTCLDY    64  46  51 W5        29.92R                  
COEURDALENE,ID PTCLDY    58  52  80 E3        29.92R                  
DEER PARK      PTCLDY    56  50  80 CALM      29.91R                  
$$

WAZ029>033-171000-
SOUTHEAST WASHINGTON
  
CITY           SKY/WX    TMP DP  RH WIND       PRES   REMARKS
PULLMAN        PTCLDY    60  52  74 CALM      29.95R                  
LEWISTON, ID   PTCLDY    68  51  54 CALM      29.88R                  
WALLA WALLA    PTCLDY    70  49  47 S12       29.92R                  
PENDLETON, OR  PTCLDY    66  48  52 SE3       29.93R                  
$$